Location: Dittmannsdorf
(48.5578°N, 13.7558°E)
Time: 19:09:47
(UTC+00:00)

Daily predictions for brighter satellites

Satellite Brightness Start Highest point End
(mag) Time Altitude Azimuth Time Altitude Azimuth Time Altitude Azimuth
Cosmos 1980 Rocket 2.9 17:11:54 10° SW 17:17:29 58° WNW 17:23:09 10° NNE
CZ-2D R/B 3.4 17:16:25 10° S 17:20:13 78° WSW 17:24:03 10° NNW
SJ-11-01 4.4 17:20:01 10° SSE 17:24:34 53° ENE 17:29:09 10° N
Cosmos 1689 Rocket 3.2 17:22:31 10° NE 17:24:53 23° E 17:27:15 10° SSE
ERBS 2.3 17:21:57 10° WSW 17:25:16 79° NW 17:28:35 10° NE
Cosmos 1867 4.4 17:21:21 10° WSW 17:26:40 51° NW 17:32:01 10° NNE
Cosmos 1666 Rocket 3.5 17:22:48 10° S 17:27:05 67° E 17:31:24 10° NNE
Cosmos 1862 Rocket 3.7 17:23:39 10° N 17:28:05 54° ENE 17:32:28 10° SSE
BREEZE-M DEB (TANK) 4.0 17:23:10 10° SSW 17:28:07 23° SSE 17:30:40 10° E
CZ-2C R/B 3.7 17:23:14 10° S 17:28:57 71° WSW 17:34:27 10° NNW
Cosmos 2322 Rocket 2.4 17:26:08 10° S 17:31:30 49° ESE 17:36:54 10° NE
Aureole 2 Rocket 2.3 17:30:03 10° N 17:32:24 32° ENE 17:34:42 10° SE
Sich 1 3.6 17:30:18 10° SSW 17:34:40 65° WNW 17:39:05 10° N
Nadezhda 3 Rocket 4.1 17:29:00 10° N 17:35:18 60° ENE 17:41:36 10° SSE
Cosmos 1461 3.4 17:32:03 10° SW 17:36:48 79° NW 17:41:34 10° NE
ATLAS 5 CENTAUR R/B 3.8 17:22:35 10° WSW 17:37:28 61° NW 17:41:28 10° NE
Meteor 1-25 Rocket 4.2 17:32:50 10° S 17:38:35 76° E 17:44:17 10° NNE
COSMOS 2428 4.4 17:40:35 10° ESE 17:42:19 11° E 17:42:30 11° E
Cosmos 2074 Rocket 4.0 17:36:24 10° S 17:42:40 88° E 17:48:57 10° N
Cosmos 2154 Rocket 4.0 17:36:51 10° S 17:42:56 60° E 17:49:02 10° NNE
YAOGAN 1 2.5 17:39:35 10° SSE 17:43:55 85° ENE 17:48:17 10° NNW
Helios 1A Rocket 3.0 17:40:11 10° SSE 17:44:07 52° ENE 17:48:03 10° N
Abrixas rocket 1.4 17:41:41 10° WSW 17:44:10 75° S 17:45:57 17° E
FALCON 9 DEB 4.1 17:43:01 10° WNW 17:45:59 35° N 17:48:33 13° ENE
Meteor 1-14 Rocket 4.4 17:41:07 10° SSE 17:46:23 45° E 17:51:38 10° NNE
Cosmos 1610 Rocket 4.5 17:40:32 10° S 17:46:38 64° E 17:52:50 10° NNE
COSMO-SKYMED 1 3.4 17:45:00 10° N 17:49:15 54° WNW 17:53:29 10° SSW
Cosmos 2219 Rocket 3.6 17:46:10 10° SE 17:49:22 16° E 17:52:35 10° ENE
SJ-6B 4.2 17:46:54 12° ESE 17:49:43 22° ENE 17:52:53 10° NNE
GP-B 3.6 17:47:22 10° SSE 17:51:26 38° E 17:55:34 10° NNE
Cosmos 2263 Rocket 3.9 17:49:54 10° NW 17:54:54 35° WSW 17:59:53 10° S
Cosmos 1992 Rocket 4.0 17:50:12 10° S 17:55:21 62° ESE 18:00:32 10° NNE
Meteor 1-18 Rocket 4.3 17:49:36 10° N 17:55:36 85° ENE 18:01:31 10° SSE
Cosmos 968 Rocket 4.1 17:50:41 10° NNW 17:55:54 62° WSW 18:01:05 10° S
SL-16 R/B 2.2 17:50:19 10° SSW 17:56:00 90° ESE 18:01:43 10° NNE
ARGOS 3.1 17:51:35 10° SSE 17:57:01 83° ENE 18:02:29 10° NNW
FALCON 9 DEB 4.0 17:55:35 10° WNW 17:58:32 34° N 18:00:32 17° ENE
USA 234 3.9 17:52:41 10° ENE 17:58:33 35° SE 18:04:25 10° SSW
Cosmos 1486 Rocket 4.5 17:54:24 10° NNW 17:59:40 66° WSW 18:04:54 10° S
Cosmos 1515 3.9 17:56:02 10° NNW 17:59:52 72° W 18:03:40 10° S
Okean 1 3.5 17:55:55 10° NNW 17:59:57 76° W 18:03:59 10° S
SJ 16-02 3.1 17:59:18 10° NNE 18:01:46 14° NE 18:02:34 14° ENE
SeaSat 1 2.6 17:57:12 10° NE 18:02:01 50° ESE 18:06:47 10° S
Cosmos 1633 Rocket 3.6 17:58:47 10° SSW 18:03:10 64° W 18:07:36 10° N
Cosmos 2184 Rocket 4.3 17:57:11 10° SSW 18:03:19 70° W 18:09:33 10° N
OBJECT-B 2.2 18:03:22 20° ENE 18:03:25 20° ENE 18:05:49 10° NNE
Okean 1-7 3.4 17:59:19 10° N 18:03:30 42° ENE 18:07:37 10° SSE
CZ-2C R/B 2.7 18:02:01 10° NNE 18:07:28 60° E 18:12:46 10° S
CZ-4 R/B 2.6 18:04:46 10° S 18:08:27 43° W 18:12:12 10° NNW
H-2A R/B 2.9 18:03:05 10° S 18:08:28 58° W 18:13:51 10° NNW
Cosmos 2322 4.5 18:03:58 10° SSE 18:08:47 29° ESE 18:13:36 10° NE
SAR-Lupe-4 3.5 18:06:27 10° NNE 18:10:04 86° ESE 18:13:39 10° SSW
USA 305 3.9 18:08:01 10° WNW 18:12:04 40° N 18:14:50 18° ENE
DMSP B5D2-2 4.3 18:08:50 10° NNE 18:13:51 44° E 18:18:48 10° S
Gbstr 26 Del rocket 3.6 18:10:20 10° W 18:14:46 61° N 18:18:26 20° ENE
SL-8 Rocket 4.2 18:09:05 10° SSE 18:14:55 44° E 18:20:45 10° NNE
Cosmos 2237 4.2 18:09:36 10° SSW 18:15:17 71° ESE 18:21:02 10° NNE
Cosmos 962 Rocket 4.4 18:10:48 10° S 18:16:55 65° E 18:23:10 10° NNE
SL-4 R/B 1.7 18:13:45 10° WNW 18:17:16 61° NNE 18:18:38 32° E
Cosmos 1869 Rocket 4.2 18:16:04 10° SSE 18:19:57 33° E 18:23:53 10° NNE
USA 307 3.9 18:19:21 10° WNW 18:23:24 39° N 18:25:41 22° NE
USA 186 2.2 18:25:07 31° NNE 18:25:07 31° NNE 18:26:42 10° N
FALCON 9 DEB 3.3 18:21:31 10° WNW 18:24:56 68° SSW 18:26:13 34° SE
ATLAS CENTAUR R/B 0.9 18:21:26 10° SSW 18:25:01 65° SE 18:26:57 25° NE
Cosmos 1339 Rocket 4.5 18:20:07 10° N 18:26:16 64° ENE 18:32:29 10° SSE
Cosmos 1354 Rocket 4.1 18:21:08 10° NNW 18:26:24 77° WSW 18:31:37 10° SSE
USA 306 3.9 18:22:47 10° WNW 18:26:49 39° N 18:28:56 23° NE
ERS-2 2.8 18:23:43 10° N 18:27:18 56° WNW 18:30:53 10° SSW
Okean-O 4.2 18:24:13 10° SSW 18:28:19 37° W 18:32:27 10° NNW
FALCON 9 DEB 3.8 18:26:09 10° WNW 18:29:08 37° N 18:29:48 32° NE
CSL-04 Rocket 4.1 18:24:01 10° S 18:29:32 68° WSW 18:35:03 10° NNW
Cosmos 2366 rocket 4.2 18:23:56 10° SSE 18:29:54 47° E 18:35:57 10° NNE
Cosmos 1378 4.3 18:26:41 10° N 18:29:16 26° NE 18:29:16 26° NE
Cosmos 1844 Rocket 2.7 18:24:39 10° NNW 18:30:14 79° WSW 18:35:48 10° SSE
FALCON 9 DEB 3.9 18:28:04 10° WNW 18:31:05 36° N 18:31:45 32° NE
USA 308 3.9 18:30:00 10° WNW 18:34:02 39° N 18:35:51 26° NE
Cosmos 1666 2.5 18:30:39 10° S 18:34:18 61° E 18:38:00 10° NNE
Cosmos 1777 Rocket 4.0 18:29:54 10° NNW 18:35:08 63° ENE 18:37:59 26° SE
Cosmos 2341 Rocket 3.9 18:31:59 10° S 18:38:18 82° E 18:44:36 10° N
Meteor 1-5 Rocket 4.0 18:33:17 10° S 18:38:39 79° E 18:44:12 10° NNE
SPOT 3 Rocket 4.3 18:37:59 30° ENE 18:38:42 32° ENE 18:43:16 10° N
Cosmos 2333 4.3 18:33:45 10° S 18:39:12 53° ESE 18:44:45 10° NE
Cosmos 1844 3.8 18:36:16 10° NNW 18:42:04 78° WSW 18:46:58 14° SSE
Okean 3 3.5 18:37:54 10° N 18:42:05 53° ENE 18:42:57 44° ESE
Ariane Rocket 3.0 18:42:04 26° SE 18:44:53 63° ENE 18:49:57 10° N
Cosmos 2360 Rocket 2.2 18:39:43 10° SSW 18:45:22 83° WNW 18:51:06 10° NNE
Cosmos 2221 Rocket 4.4 18:42:17 10° N 18:45:39 32° NE 18:45:39 32° NE
Cosmos 2278 Rocket 2.9 18:42:27 10° NNW 18:47:38 34° NE 18:48:36 32° ENE
Cosmos 1727 Rocket 4.1 18:44:12 10° N 18:50:16 53° ENE 18:52:57 32° SE
Cosmos 1703 Rocket 4.2 18:49:32 10° NNW 18:53:52 57° W 18:58:07 10° S
Cosmos 2333 Rocket 2.2 18:49:56 10° S 18:55:28 56° ESE 19:01:04 10° NE
Cosmos 2218 Rocket 3.9 18:50:30 10° S 18:56:53 75° E 19:03:17 10° NNE
ERBS 4.2 18:59:07 10° WNW 19:01:51 23° NNW 19:02:19 22° N
Cosmos 1943 Rocket 4.1 19:03:24 10° N 19:06:27 14° NNE 19:06:52 14° NE
Resurs 01 Rocket 2.4 19:12:41 40° NNE 19:12:41 40° NNE 19:15:51 10° N
Cosmos 864 Rocket 4.4 19:07:30 10° S 19:13:40 90° WNW 19:19:55 10° N
Cosmos 2322 Rocket 3.8 19:10:41 10° WSW 19:15:45 34° NW 19:20:51 10° NNE
Lacrosse 4 Rocket 3.3 19:13:01 10° SSW 19:14:29 21° SSW 19:14:29 21° SSW
SME Rocket 4.2 19:09:00 10° NNE 19:17:37 87° WNW 19:23:05 10° SSW
Cosmos 1959 Rocket 4.5 19:13:01 10° SSW 19:19:06 80° W 19:25:16 10° N
Cosmos 192 4.4 19:17:46 10° SSW 19:22:40 77° WNW 19:27:37 10° NNE
SJ-6B 4.1 19:22:30 27° SSW 19:24:09 40° W 19:28:00 10° NNW
COSMOS 2428 2.7 19:19:52 10° SSW 19:32:12 - NNE 19:24:51 64° SSE
ASTEX 1 3.6 19:22:03 10° N 19:26:55 67° W 19:30:11 21° SSW
Meteor 1-23 Rocket 4.1 19:23:56 10° NNW 19:29:33 87° W 19:30:27 65° S
Meteor 1-11 Rocket 4.0 19:26:44 10° SSW 19:32:26 68° WNW 19:38:03 10° N
Cosmos 2219 Rocket 2.0 19:26:54 10° SSW 19:32:30 89° WNW 19:38:10 10° NNE
OBJECT-B 3.2 19:36:26 23° WNW 19:36:26 23° WNW 19:38:20 10° NW
Resurs 1-3 4.2 19:38:47 54° W 19:38:47 54° W 19:42:54 10° NNW
SeaSat 1 4.1 19:35:01 10° NNE 19:39:22 32° NW 19:43:41 10° WSW
Terra 4.2 19:42:56 13° NNE 19:42:56 13° NNE 19:43:33 10° NNE
SJ 16-02 2.3 19:36:34 10° NNW 19:39:35 43° NNW 19:39:35 43° NNW
USA 234 3.2 19:39:54 47° NE 19:42:02 85° NNW 19:48:35 10° WSW
USA 281 4.5 19:47:39 26° NE 19:47:39 26° NE 19:52:28 10° N
Meteor 2-20 Rocket 4.3 19:42:55 10° N 19:49:03 88° W 19:49:08 87° SW
Cosmos 2369 Rocket 4.2 19:48:10 10° N 19:50:42 16° NNE 19:50:42 16° NNE
BREEZE-M DEB (TANK) 3.7 19:49:18 10° WNW 19:51:09 42° W 19:51:09 42° W
Cosmos 2322 4.3 19:47:03 10° SW 19:52:40 54° WNW 19:58:18 10° NNE
Gbstr 26 Del rocket 4.1 19:57:09 10° WNW 20:00:59 55° NW 20:00:59 55° NW
ATLAS CENTAUR R/B 3.9 20:01:33 10° W 20:03:11 17° WNW 20:03:11 17° WNW
NOSS 3-3 (A) 4.5 20:10:59 10° NW 20:18:28 76° SW 20:18:42 75° SW
NOSS 3-3 (C) 4.5 20:11:05 10° NW 20:18:34 76° SW 20:18:47 76° SW
Cosmos 2278 Rocket 3.4 20:26:28 10° NW 20:30:28 39° WNW 20:30:28 39° WNW
Cosmos 2333 Rocket 3.8 20:35:03 10° WSW 20:40:05 31° NW 20:45:09 10° NNE
Resurs 01 Rocket 4.4 20:50:14 15° WNW 20:50:14 15° WNW 20:51:32 10° NW
Cosmos 1943 Rocket 4.1 20:46:02 10° NNW 20:48:24 25° N 20:48:24 25° N
Cosmos 2219 Rocket 4.4 21:13:06 10° W 21:17:17 21° NW 21:21:29 10° N
